Showing default

BISONSAT, 40968

Orbit data source: Space-Track

BISONSAT, 40968 is a payload satellite owned by Salish Kootenai (US) in LEO that was launched on Thu, 08 Oct 2015 UTC via an ATLAS V 401 launch vehicle from the Air Force Western Test Range (AFWTR). Payloads include a variety of satellites, spacecraft, and rockets equipped with specific instruments for various scientific and technological missions. These include communications satellites like Starlink; space stations such as the ISS; scientific satellites like the Hubble; Earth observation satellites from companies like Planet Labs, Umbra, and HawkEye 360; GPS; miniature CubeSats for education and research; and military/defense satellites.

Loading next visibility...
BISONSAT details
Identifier
40968, 2015-058E
Orbit
LEO
Last TLE update21 hours ago
Origin
Flag of USSalish Kootenai (US)
ManufacturerSalish Kootenai
MissionOperational Amateur Technology
Bus & MotorCUBESAT 1U, Unknown motor
Mass1 kg wet, 1 kg dry
Launch date (UTC)
2015-10-08 (9 years ago)
Launch vehicle
ATLAS V 401
Launch site
Air Force Western Test Range (AFWTR)
Object type
Payload
Rocket body
Debris
Shape & HBRBox, 0.1 m
Radar Cross Section0.015 m², Small (<0.1 m²)

Expand to show TLE details & history

TLE from 21 hours ago
0 BISONSAT
1 40968U 15058E   24360.61395806  .00015481  00000-0  12556-2 0  9999
2 40968  64.7757 137.6974 0175384 245.6416 112.6300 14.88531724 36261
Epoch: 2024-12-25T14:44Z
Definitive object data (Epoch: 2024-12-25T14:44:05.976Z)
Latitude-0.00009°
Longitude-177.93272°
Altitude653.451 km
Speed7.505 km/s
True Right ascension09h 10m 47s
True Declination0° 00' 00"
Sunlit
Object was in full shadow at TLE epoch
Visualization TLE readout
Latitude-64.8929°
Longitude88.20689°
Altitude514.086 km
Speed7.667 km/s
Apparent Right ascension00h 11m 27s
Apparent Declination-56° 51' 11"
Sunlit
Object is in daylight
Visualization observer readout
Local Sidereal Time10:39:01
Azimuth213.889° SW
Elevation-67.366°
Doppler factor1
Orbital elements
Apogee altitude723.495 km
Perigee altitude478.686 km
Semi-major axis6,979.227 km
Eccentricity0.0175384
Inclination64.7757°
RAAN137.6974°
Arg. of periapsis245.6416°
True anomaly114.46918°
Mean anomaly112.63°
Eccentric anomaly113.55117°
Mean motion3.72248 °/min
BSTAR0.0012556
Orbital period96.71 mins
Loading maneuver chart data...
Loading historical data...
Loading historical data...
Loading historical data...
Loading historical data...
Loading historical data...
Loading historical data...
Loading historical data...

BISONSAT Visibility forecast

Observer location: undefined°, undefined

Span
Click to sort rows by Start time (UTC) header in descending order
Start Az.
Max El. time (UTC)
Max El. Az.
Max El.
End time (UTC)
End Az.
8 mins2024-12-26 11:51:42.278Z244.481° WSW2024-12-26 11:55:42.278Z313.126° NW31.948°2024-12-26 11:59:42.278Z14.823° NNE
5 mins2024-12-26 18:41:42.278Z16.113° NNE2024-12-26 18:43:42.278Z49.658° ENE19.342°2024-12-26 18:46:42.278Z91.528° ESE
7 mins2024-12-26 20:19:42.278Z315.878° NNW2024-12-26 20:23:42.278Z221.818° SW37.957°2024-12-26 20:26:42.278Z170.002° S
8 mins2024-12-27 10:24:42.278Z184.29° SSW2024-12-27 10:27:42.278Z124.493° SE37.691°2024-12-27 10:32:42.278Z42.073° NE
|